Location: Bathurst
(33.4193°S, 149.5775°E)
Time: 00:21:17
(UTC+10:00)

A-11 Canister half - Pass Details

Date: 16 June 2021
Orbit: 1513 x 1687 km, 47.2° (Epoch: 28 July)

Event Time Altitude Azimuth Distance (km) Brightness Sun altitude
Rises 19:34:58 0° 262° (W) 4,732 12.6 -31.3°
Reaches altitude 10° 19:38:22 10° 253° (WSW) 3,774 11.8 -32.0°
Maximum altitude 19:47:06 37° 188° (S) 2,320 9.8 -33.8°
Enters shadow 19:48:34 36° 170° (S) 2,383 9.8 -34.1°
